Weather in Komsomolskiy

Russia / Chukotka Autonomous Okrug     69°07′56″N   172°44′45″E
В апреле 2022 года жителям России запретили посещать сайт meteo.paraplan.net по решению Генеральной прокуратуры. Аудитория сайта уменьшилась в 10 раз. Владельцы сайта не видят смысла в поддержке погодного сервера в таких условиях. Сайт будет закрыт в октябре.
temp.,
°C
wind,
m/s
gust,
m/s
humid.,
%
clouds,
%
prec.,
mm/h
press.,
hPa
HPBL,
m
25 september, sun
sun2500:00−6nw119589 0.1 102112
03:00−5w1190100 0.0 102210
06:00−5w1185100 0.0 102323
09:00−4wnw118099 0.0 1024252
12:00−2nnw237185 0.1 1024732
15:00−2nne347375 0.0 1024637
18:00−5n329452 0.1 102532
21:00−5nne349680 0.1 102577
26 september, mon
mon2600:00−4ne248199 0.1 1025476
03:00−4ne2390100 0.1 1025103
06:00−4nne239499 0.1 1024113
09:00−3ne348770 0.1 1024427
12:00−3ene348095 0.1 1024595
15:00−3ene457687 0.0 1023618
18:00−3ne478692 0.1 1022443
21:00−4ene349194 0.0 1021262
27 september, tue
tue2700:00−5ne239055 0.0 102066
03:00−6ne339980 0.0 1019141
06:00−6ne349598 0.1 1019286
09:00−5ne349099 0.1 1019378
12:00−4ne358399 0.1 1018512
15:00−4ne358199 0.1 1017605
18:00−4ne348898 0.1 1017393
21:00−6nne239588 0.1 101789
28 september, wed
wed2800:00−7nne229761 0.1 101629
03:00−8nne229861 0.0 101614
06:00−9n119635 0.0 101610
09:00−6w118276 0.0 101680
12:00−4w117266 0.0 1015467
15:00−3w117175 0.0 1015469
18:00−6sw118771 0.0 101510
21:00−7wsw119135 0.0 101610
29 september, thu
thu2900:00−8sw119467 0.0 101610
03:00−9wsw119535 0.0 101610
06:00−9sw119516 0.0 101610
09:00−6sw11885 0.0 101559
12:00−4s11765 0.0 1014316
15:00−3se117321 0.0 1014400
18:00−7e11905 0.0 101410
21:00−9ese119425 0.0 101410